Location: *
(48.4333°N, 5.0333°W)
Time: 10:49:57
(UTC+00:00)

SJ-6B - Pass Details

Date: 15 August 2020
Orbit: 509 x 581 km, 97.6° (Epoch: 22 September)

Event Time Altitude Azimuth Distance (km) Brightness Sun altitude
Rises 20:56:05 0° 197° (SSW) 2,753 6.2 -12.6°
Reaches altitude 10° 20:58:35 10° 212° (SSW) 1,850 5.4 -13.0°
Maximum altitude 21:01:48 23° 266° (W) 1,208 5.1 -13.4°
Drops below altitude 10° 21:04:59 10° 320° (NW) 1,829 6.9 -13.8°
Sets 21:07:27 0° 335° (NNW) 2,713 7.6 -14.1°
